GW4499 Weather Reports


Display with metric or nautical units.
time (UTC)temp
F
wind
direction
speed
MPH
gust
MPH
rain 1hr
in
rain 24hr
in
rain mn
in
humidity
%
barometer
mb
20260510075520 48 0.0 0.0 0.05 0.10 0.10 93 1024.0
20260510074520 48 0.0 0.0 0.06 0.09 0.09 93 1023.8
20260510073519 48 0.0 0.0 0.08 0.08 0.08 92 1024.1
20260510072520 48 0.0 0.0 0.08 0.08 0.08 92 1024.3
20260510071519 48 0.0 0.0 0.08 0.08 0.08 91 1024.2
20260510070519 48 135 1.0 3.0 0.08 0.08 0.08 90 1023.5
20260510065519 49 158 2.0 5.0 0.05 0.05 0.05 88 1023.7
20260510064520 49 180 2.0 5.0 0.03 0.03 0.03 87 1024.0
20260510063520 49 0.0 4.0 0.00 0.00 0.00 85 1023.8
20260510062519 49 0.0 0.0 0.00 0.00 0.00 84 1023.8
20260510061539 49 180 1.0 4.0 0.00 0.00 0.00 83 1023.3
20260510060520 49 0.0 3.0 0.00 0.00 0.00 83 1023.2
20260510055520 50 135 1.0 3.0 0.00 0.00 0.00 82 1023.5
20260510054519 50 203 1.0 4.0 0.00 0.00 0.00 80 1023.3
20260510053519 50 0.0 1.0 0.00 0.00 0.00 78 1023.1
20260510052519 50 0.0 1.0 0.00 0.00 0.00 77 1023.0
20260510051519 50 0.0 1.0 0.00 0.00 0.00 75 1022.9
20260510050539 51 0.0 2.0 0.00 0.00 0.00 73 1023.1
20260510045519 51 0.0 0.0 0.00 0.00 0.00 71 1023.0
20260510044519 51 0.0 1.0 0.00 0.00 0.00 69 1022.8
20260510043539 51 0.0 1.0 0.00 0.00 0.00 69 1022.8
20260510042539 51 0.0 0.0 0.00 0.00 0.00 67 1022.7
20260510041520 51 0.0 0.0 0.00 0.00 0.00 67 1022.6
20260510040519 51 0.0 0.0 0.00 0.00 0.00 67 1021.8
20260510035519 51 0.0 0.0 0.00 0.00 0.00 66 1021.8
20260510034519 52 0.0 2.0 0.00 0.00 0.00 65 1021.7
20260510033559 52 338 1.0 6.0 0.00 0.00 0.00 65 1021.2
20260510032519 52 315 1.0 5.0 0.00 0.00 0.00 65 1021.2
20260510031519 52 315 2.0 5.0 0.00 0.00 0.00 65 1021.4
20260510030519 52 315 1.0 4.0 0.00 0.00 0.00 66 1020.5
20260510025519 52 315 2.0 5.0 0.00 0.00 0.00 66 1020.2
20260510024519 52 315 2.0 7.0 0.00 0.00 0.00 67 1019.6
20260510023519 52 315 1.0 6.0 0.00 0.00 0.00 66 1018.3
20260510022519 52 315 3.0 5.0 0.00 0.00 0.00 66 1018.3
20260510021539 53 315 2.0 7.0 0.00 0.00 0.00 65 1018.4
20260510020519 53 315 3.0 8.0 0.00 0.00 0.00 66 1016.7
20260510015519 53 315 2.0 11.0 0.00 0.00 0.00 65 1015.9
20260510014519 53 315 4.0 11.0 0.00 0.00 0.00 64 1016.1
20260510013519 54 315 3.0 11.0 0.00 0.00 0.00 64 1015.1
20260510011519 54 315 4.0 11.0 0.00 0.00 0.00 63 1015.0
20260510010519 55 315 4.0 8.0 0.00 0.00 0.00 64 1014.6
20260510005519 55 315 3.0 8.0 0.00 0.00 0.00 64 1014.4
20260510004559 55 315 4.0 10.0 0.00 0.00 0.00 64 1013.7
20260510003519 56 315 4.0 10.0 0.00 0.00 0.00 64 1013.3
20260510002519 56 315 4.0 12.0 0.00 0.00 0.00 63 1012.6
20260510001519 57 315 5.0 10.0 0.00 0.00 0.00 61 1012.7
20260510000519 57 315 5.0 11.0 0.00 0.00 0.00 61 1012.5
20260509235519 58 315 4.0 15.0 0.00 0.00 0.00 58 1012.0
20260509234519 59 315 5.0 15.0 0.00 0.00 0.00 55 1011.7
20260509233519 61 315 5.0 10.0 0.00 0.00 0.00 49 1011.3
20260509232519 65 338 4.0 16.0 0.00 0.00 0.00 43 1011.3
20260509231519 71 0 1.0 4.0 0.00 0.00 0.00 28 1011.5
20260509230519 71 0.0 1.0 0.00 0.00 0.00 29 1010.8
20260509225519 71 0.0 1.0 0.00 0.00 0.00 28 1010.3
20260509224519 71 0.0 2.0 0.00 0.00 0.00 29 1010.4
20260509223519 71 0.0 2.0 0.00 0.00 0.00 29 1010.3
20260509222519 71 0.0 6.0 0.00 0.00 0.00 30 1010.3
20260509221539 71 0.0 2.0 0.00 0.00 0.00 31 1010.5
20260509220540 71 45 1.0 4.0 0.00 0.00 0.00 29 1010.8
20260509215519 71 0.0 3.0 0.00 0.00 0.00 30 1010.9
20260509214518 72 203 1.0 3.0 0.00 0.00 0.00 30 1010.8
20260509213519 72 68 1.0 3.0 0.00 0.00 0.00 29 1011.2
20260509212519 72 45 1.0 4.0 0.00 0.00 0.00 28 1011.2
20260509211519 73 135 1.0 4.0 0.00 0.00 0.00 29 1011.5
20260509210519 72 23 1.0 5.0 0.00 0.00 0.00 28 1011.9
20260509205519 73 225 1.0 4.0 0.00 0.00 0.00 27 1011.9
20260509204518 74 23 1.0 5.0 0.00 0.00 0.00 25 1012.1
20260509203518 75 0.0 0.0 0.00 0.00 0.00 18 1012.0
20260509202518 76 0.0 2.0 0.00 0.00 0.00 18 1012.1
20260509201518 75 0.0 1.0 0.00 0.00 0.00 19 1012.3
20260509200539 75 0.0 2.0 0.00 0.00 0.00 20 1012.2
20260509195518 75 0.0 3.0 0.00 0.00 0.00 18 1012.2
20260509194519 76 315 2.0 7.0 0.00 0.00 0.00 17 1012.3
20260509193519 78 0 1.0 3.0 0.00 0.00 0.00 18 1012.7
20260509192519 77 315 2.0 8.0 0.00 0.00 0.00 18 1012.8
20260509191518 79 315 1.0 6.0 0.00 0.00 0.00 17 1012.8
20260509190518 78 315 2.0 5.0 0.00 0.00 0.00 16 1013.2
20260509185518 77 0 3.0 8.0 0.00 0.00 0.00 17 1013.2
20260509184538 77 315 3.0 10.0 0.00 0.00 0.00 16 1013.3
20260509183518 77 315 3.0 9.0 0.00 0.00 0.00 17 1014.1
20260509182518 77 315 4.0 8.0 0.00 0.00 0.00 17 1014.2
20260509181518 76 315 2.0 7.0 0.00 0.00 0.00 18 1014.0
20260509180518 76 315 3.0 9.0 0.00 0.00 0.00 17 1013.8
20260509175519 76 315 3.0 8.0 0.00 0.00 0.00 17 1013.9
20260509174518 76 315 3.0 6.0 0.00 0.00 0.00 16 1013.9
20260509173518 75 293 3.0 10.0 0.00 0.00 0.00 17 1013.7
20260509172539 75 315 3.0 9.0 0.00 0.00 0.00 17 1013.8
20260509171519 75 315 1.0 5.0 0.00 0.00 0.00 18 1013.9
20260509170521 75 315 2.0 5.0 0.00 0.00 0.00 19 1014.3
20260509165520 74 338 2.0 10.0 0.00 0.00 0.00 17 1013.8
20260509164520 75 315 3.0 6.0 0.00 0.00 0.00 18 1014.3
20260509163520 76 0.0 2.0 0.00 0.00 0.00 19 1014.4
20260509162520 75 270 1.0 2.0 0.00 0.00 0.00 18 1014.4
20260509161540 74 315 1.0 3.0 0.00 0.00 0.00 20 1014.2
20260509160520 72 338 1.0 3.0 0.00 0.00 0.00 22 1014.2
20260509155520 71 315 1.0 4.0 0.00 0.00 0.00 26 1014.3
20260509154520 71 315 1.0 4.0 0.00 0.00 0.00 25 1014.3
20260509153520 70 338 1.0 3.0 0.00 0.00 0.00 30 1014.4
20260509152520 70 315 1.0 4.0 0.00 0.00 0.00 29 1014.4
20260509151520 69 315 2.0 5.0 0.00 0.00 0.00 28 1014.4
20260509150518 68 338 2.0 4.0 0.00 0.00 0.00 30 1014.4
20260509145520 68 315 1.0 3.0 0.00 0.00 0.00 31 1014.4
20260509144520 67 338 1.0 4.0 0.00 0.00 0.00 31 1014.1
20260509143520 65 293 1.0 3.0 0.00 0.00 0.00 34 1014.0
20260509142520 64 315 1.0 3.0 0.00 0.00 0.00 37 1013.7
20260509141520 61 315 2.0 4.0 0.00 0.00 0.00 42 1013.5
20260509140520 59 315 1.0 3.0 0.00 0.00 0.00 47 1013.4
20260509135520 55 315 1.0 3.0 0.00 0.00 0.00 61 1012.9
20260509134520 51 0.0 1.0 0.00 0.00 0.00 79 1012.4
20260509133520 49 0.0 0.0 0.00 0.00 0.00 83 1012.0
20260509132520 48 0.0 0.0 0.00 0.00 0.00 83 1011.9
20260509131520 48 0.0 0.0 0.00 0.00 0.00 84 1011.9
20260509130520 48 0.0 0.0 0.00 0.00 0.00 85 1012.2
20260509125520 48 0.0 0.0 0.00 0.00 0.00 84 1012.3
20260509124521 47 0.0 1.0 0.00 0.00 0.00 85 1011.8
20260509123520 47 0.0 1.0 0.00 0.00 0.00 85 1011.8
20260509122520 46 0.0 0.0 0.00 0.00 0.00 84 1011.7
20260509121520 46 0.0 1.0 0.00 0.00 0.00 85 1011.3
20260509120520 46 0.0 0.0 0.00 0.00 0.00 86 1011.4
20260509115520 46 0.0 0.0 0.00 0.00 0.00 86 1011.3
20260509114520 45 0.0 1.0 0.00 0.01 0.00 87 1010.8
20260509113520 46 0.0 0.0 0.00 0.02 0.00 87 1011.0
20260509112520 46 0.0 0.0 0.00 0.04 0.00 86 1010.8
20260509111520 46 0.0 0.0 0.00 0.04 0.00 86 1010.7
20260509110520 46 0.0 0.0 0.00 0.04 0.00 86 1010.9
20260509105520 46 0.0 0.0 0.00 0.04 0.00 86 1010.7
20260509104520 46 0.0 0.0 0.00 0.04 0.00 86 1010.6
20260509103519 46 0.0 1.0 0.00 0.04 0.00 85 1010.5
20260509102600 46 0.0 1.0 0.00 0.04 0.00 85 1010.3
20260509101519 46 0.0 1.0 0.00 0.04 0.00 84 1010.2
20260509100519 47 0.0 1.0 0.00 0.04 0.00 83 1010.7
20260509095539 47 0.0 1.0 0.00 0.04 0.00 82 1010.9
20260509094519 47 0.0 1.0 0.00 0.04 0.00 82 1010.9
20260509093519 47 0.0 1.0 0.00 0.04 0.00 81 1010.8
20260509092540 48 0.0 1.0 0.00 0.04 0.00 80 1011.0
20260509091519 49 0.0 0.0 0.00 0.04 0.00 78 1011.0
20260509090519 49 0.0 1.0 0.00 0.04 0.00 76 1011.6
20260509085520 50 0.0 0.0 0.00 0.04 0.00 75 1011.7
20260509084520 51 0.0 0.0 0.00 0.04 0.00 73 1011.6
20260509083640 50 0.0 1.0 0.00 0.04 0.00 73 1011.4
20260509082520 50 0.0 0.0 0.00 0.04 0.00 75 1011.4
20260509081519 51 0.0 0.0 0.00 0.04 0.00 73 1011.5
20260509080520 51 0.0 0.0 0.00 0.04 0.00 72 1011.3